Tracking 19827 objects as of 22-Aug-2019
HD Live streaming from Space Station
objects crossing your sky now

WESTFORD NEEDLES

Track WESTFORD NEEDLES now!
10-day predictions
WESTFORD NEEDLES is classified as:


NORAD ID: 5702
Int'l Code: 1963-014CU
Perigee: 2,163.2 km
Apogee: 5,053.4 km
Inclination: 86.8 °
Period: 165.4 minutes
Semi major axis: 9979 km
RCS: 0.1919 m2 (medium)
Launch date: May 9, 1963
Source: United States (US)
Launch site: AIR FORCE WESTERN TEST RANGE (AFWTR)
aabbcc
Your satellite tracking list
Your tracking list is empty




NASA's NSSDC Master Catalog

Two Line Element Set (TLE):
1  5702U 63014CU  19233.48906229  .00000099  00000-0  14445-1 0  9993
2  5702  86.8406  53.2039 1448056  35.9151 333.0847  8.70869609604957
Source of the keplerian elements: AFSPC